HULIANWANG DIGUI-13

Satellite information

Favourite Embed

Satellite Type and Status

PAYLOADIN ORBIT

Key statistics

Satellite HULIANWANG DIGUI-13 at a glance.

Uptime

308

Days in orbit

Revolutions

≈ 13.3

Per day

Orbit

LEO

Low Earth Orbit

Inclination

50.0

Latest

Satellite identification and parameters

Extended collection of information and parameters for HULIANWANG DIGUI-13.

Object identification

Identified? True

Debris? False

Object name: HULIANWANG DIGUI-13

International designator: 2025-030C

Object number (NORAD): 62973

Object ID (CCSDS): 62973

Country: PEOPLES REPUBLIC OF CHINA (PRC)

Current information (Y/N): Y

RCS size: LARGE

Orbital parameters

Period: 108.325 minutes

Inclination: 50.0003 deg

SMA: 7527.42 km

Apoapsis: 1149.779 km

Periapsis: 1148.791 km

RAAN: 173.3355 deg

Eccentricy: 0.00006566

Argument of periapsis: 40.1563 deg

Mean anomaly: 319.9357 deg

Mean motion: 13.29332189 rev/day

Mean motion (dot): -0.00000068 rev/day2

B* drag term: 0.00012093784 1/REarth

Two-line elements (TLE)

Creation date: Dec. 16, 2025, 2:19 a.m.

Reference frame: TEME

Reference center: EARTH

Epoch: Dec. 15, 2025, 8:45 p.m. UTC

TLE line 0: 0 HULIANWANG DIGUI-13

TLE line 1: 1 62973U 25030C 25349.86477502 -.00000068 00000-0 12094-3 0 9993

TLE line 2: 2 62973 50.0003 173.3355 0000657 40.1563 319.9357 13.29332189 41475

Live tracking on map

Real-time ground track for satellite HULIANWANG DIGUI-13.

In-orbit conjunctions

There are no conjunctions computed for HULIANWANG DIGUI-13, at the moment. Check back to stay up to date, as we update our databases every day.

Go to all conjunctions

Associated space launch

Demonstration flight of the Long March 8A rocket with upgraded first stage and boosters engines, and a new larger liquid hydrogen/liquid oxygen second stage with new YF-75H engines derived from ones used on the Long March 5. Payload is a batch of Low Earth Orbit communication satellites for the Chinese state owned SatNet constellation operated by the China Satellite Network Group. The constellation will eventually consists of 13000 satellites.

HULIANWANG DIGUI-13 was lifted into orbit during the mission ‘Long March 8A | SatNet LEO Group 02 (Demo Flight)’, on board a Long March 8A space rocket.

The launch took place on Feb. 11, 2025, 9:30 a.m. from 201.

For more information about the launch, click the button.

Launch to space Long March 8A | SatNet LEO Group 02 (Demo Flight)
Long March 8A | SatNet LEO Group 02 (Demo Flight)

Agency: N/A

Status: Launch Successful

Launch date: Feb. 11, 2025, 9:30 a.m. UTC

Rocket: Long March 8A

Launch pad: 201

Location: Wenchang Space Launch Site, People's Republic of China

...

Latest news about this satellite

News about space launch
Chang Zheng 8A launches as Chinese spaceport expansions begin

Chinese spaceflight activities have been on pause in recent weeks due to the annual Spring… The post Chang Zheng 8A launches as Chinese spaceport expansions begin appeared first on NASASpaceFlight.com.

News about space launch
First launch of Long March 8A sends second group of Guowang megaconstellation satellites into orbit

HELSINKI — China conducted the first launch of the Long March 8A early Tuesday, carrying a second batch of satellites into orbit for the national Guowang project. The first Long […] The post First launch of Long March 8A sends second group of Guowang meg...

News about space launch
Launch Roundup: Starlink and CZ-8A launches planned; Falcon booster to land in Bahamas

China will be conducting the debut flight of an upgraded version of the Chang Zheng… The post Launch Roundup: Starlink and CZ-8A launches planned; Falcon booster to land in Bahamas appeared first on NASASpaceFlight.com.


Newsletter sign-up

Weekly statistics, charts and insights to help you stay on top of the space industry.